Location: Estes Park
(40.3770°N, 105.5210°W)
Time: 18:02:01
(UTC-06:00)

Vanguard 2 Rocket - All Passes

Search period start: 16 July 2018 00:00
Search period end: 26 July 2018 00:00
Orbit: 553 x 3327 km, 32.9° (Epoch: 16 July)

Date Brightness Start Highest point End Pass type
(mag) Time Alt. Az. Time Alt. Az. Time Alt. Az.
16 Jul - 03:44:14 10° SSW 03:50:19 33° SSE 04:00:09 10° E visible
16 Jul - 05:55:06 10° WSW 06:03:50 60° S 06:19:13 10° E daylight
16 Jul - 08:07:44 10° W 08:19:26 57° SSW 08:37:47 10° ESE daylight
16 Jul - 10:22:19 10° W 10:35:54 37° SSW 10:53:11 10° SSE daylight
16 Jul - 12:43:29 10° WSW 12:51:45 14° SW 13:00:23 10° SSW daylight
17 Jul - 02:46:38 10° S 02:51:14 21° SE 02:57:45 10° E visible
17 Jul - 04:56:22 10° WSW 05:03:44 52° SSE 05:16:44 10° E visible
17 Jul - 07:08:23 10° W 07:18:30 60° S 07:35:35 10° ESE daylight
17 Jul - 09:21:58 10° W 09:34:37 44° SSW 09:52:26 10° SE daylight
17 Jul - 11:39:24 10° W 11:50:46 21° SW 12:03:37 10° S daylight
18 Jul - 01:50:53 10° SSE 01:52:26 11° SE 01:54:07 10° ESE visible
18 Jul - 03:57:56 10° SW 04:04:04 42° SSE 04:14:31 10° E visible
18 Jul - 06:09:19 10° WSW 06:17:57 60° S 06:33:11 10° ESE daylight
18 Jul - 08:22:10 10° W 08:33:29 49° SSW 08:51:01 10° SE daylight
18 Jul - 10:37:33 10° W 10:49:40 28° SSW 11:04:42 10° SSE daylight
19 Jul - 02:59:52 10° SSW 03:04:50 29° SSE 03:12:31 10° E visible
19 Jul - 05:10:30 10° WSW 05:17:48 56° S 05:30:50 10° E visible
19 Jul - 07:22:45 10° W 07:32:38 53° SSW 07:49:08 10° ESE daylight
19 Jul - 09:36:48 10° W 09:48:33 34° SSW 10:04:39 10° SSE daylight
19 Jul - 11:58:04 10° WSW 12:04:26 13° SW 12:11:16 10° SSW daylight
20 Jul - 02:02:25 10° S 02:05:55 18° SE 02:10:31 10° ESE visible
20 Jul - 04:11:54 10° WSW 04:18:03 48° SSE 04:28:43 10° E visible
20 Jul - 06:23:37 10° W 06:32:07 56° S 06:46:59 10° ESE daylight
20 Jul - 08:36:46 10° W 08:47:33 40° SSW 09:03:45 10° SE daylight
20 Jul - 10:53:53 10° WSW 11:03:28 19° SW 11:14:49 10° S daylight
21 Jul - 03:13:34 10° SW 03:18:40 37° SSE 03:26:55 10° E visible
21 Jul - 05:24:45 10° WSW 05:31:58 55° S 05:44:48 10° ESE daylight
21 Jul - 07:37:13 10° W 07:46:46 45° SSW 08:02:17 10° SE daylight
21 Jul - 09:52:14 10° WSW 10:02:29 24° SSW 10:15:53 10° SSE daylight
22 Jul - 02:15:33 10° SSW 02:19:37 25° SSE 02:25:25 10° E visible
22 Jul - 04:26:04 10° WSW 04:32:10 51° S 04:42:49 10° ESE visible
22 Jul - 06:38:02 10° W 06:46:18 48° SSW 07:00:30 10° SE daylight
22 Jul - 08:51:45 10° W 09:01:37 30° SSW 09:15:46 10° SSE daylight
22 Jul - 11:14:59 10° SW 11:17:23 10° SW 11:19:53 10° SSW daylight
23 Jul - 01:18:13 10° S 01:20:46 15° SE 01:23:48 10° ESE visible
23 Jul - 03:27:34 10° WSW 03:32:42 43° SSE 03:41:11 10° E visible
23 Jul - 05:39:05 10° W 05:46:10 50° S 05:58:35 10° ESE daylight
23 Jul - 07:51:56 10° W 08:00:56 35° SSW 08:14:54 10° SE daylight
23 Jul - 10:09:08 10° WSW 10:16:30 16° SW 10:25:20 10° S daylight
24 Jul - 02:29:14 10° SW 02:33:31 32° SSE 02:39:54 10° E visible
24 Jul - 04:40:21 10° WSW 04:46:22 50° S 04:56:48 10° ESE visible
24 Jul - 06:52:35 10° W 07:00:31 39° SSW 07:13:35 10° SE daylight
24 Jul - 09:07:29 10° WSW 09:15:44 20° SSW 09:26:39 10° S daylight
25 Jul - 01:31:13 10° SSW 01:34:34 21° SSE 01:38:54 10° ESE visible
25 Jul - 03:41:44 10° WSW 03:46:51 46° S 03:55:18 10° ESE visible
25 Jul - 05:53:33 10° W 06:00:25 42° S 06:12:04 10° SE daylight
25 Jul - 08:07:06 10° WSW 08:15:08 25° SSW 08:26:42 10° SSE daylight
